Regional Weather Roundup
Issued by NWS

Home | Current Version | Previous Version | Graphics & Text | Print | Product List | Glossary On
Versions: 1 2 3 4 5 6 7 8 9 10 11 12 13 14 15 16 17 18 19 20 21 22 23 24 25 26 27 28 29 30 31 32 33 34 35 36 37 38 39 40 41 42 43 44 45 46 47 48 49 50
000
ASUS43 KMPX 250501
RWRMN
WEATHER ROUNDUP FOR MINNESOTA
NATIONAL WEATHER SERVICE TWIN CITIES/CHANHASSEN MN
1100 PM CST FRI FEB 24 2017


NOTE: "FAIR" INDICATES FEW OR NO CLOUDS BELOW 12,000 FEET WITH NO
SIGNIFICANT WEATHER AND/OR OBSTRUCTIONS TO VISIBILITY. N/A MEANS
CURRENT SKY AND/OR WEATHER CONDITIONS ARE NOT AVAILABLE.

MNZ060>063-068>070-250600-
   Twin Cities Metro

CITY           SKY/WX    TMP DP  RH WIND       PRES   REMARKS
TWIN CITIES    PTCLDY    21   7  54 N18G26    29.89S WCI   6
ST PAUL        CLOUDY    22  10  60 N16G23    29.89F WCI   8
CRYSTAL        PTCLDY    21   6  52 N14G28    29.89S WCI   8
BLAINE         CLOUDY    21   9  58 N16G26    29.89R WCI   7
LAKEVILLE      PTCLDY    19  10  68 NW13G22   29.87S WCI   7
EDEN PRAIRIE   CLEAR     22   7  52 N15G24    29.88S WCI   9
SOUTH ST PAUL  CLOUDY    23  10  56 N13G24    29.88S WCI  11
LAKE ELMO      MOCLDY    23  10  58 N14G20    29.87S WCI  11
$$
MNZ001>005-007-008-013>017-022>024-027-028-250600-
   Northwest Minnesota

CITY           SKY/WX    TMP DP  RH WIND       PRES   REMARKS
BEMIDJI        CLEAR     10   3  75 NW12      29.98F WCI  -5
HALLOCK        CLEAR      9   5  85 W3        30.08F
ROSEAU         CLEAR      7   1  78 W7        30.05S WCI  -5
WARROAD        CLEAR      9   1  72 NW5       30.03F WCI   0
THIEF RVR FALL CLEAR     11   7  84 NW10      30.06F WCI  -3
CROOKSTON      CLEAR     16  10  79 NW9       30.10F WCI   4
FOSSTON        CLEAR     10   5  79 NW13      30.03F WCI  -5
DETROIT LAKES  CLEAR     14   9  79 N18       30.02F WCI  -3
MOORHEAD       CLEAR     18   9  68 N13       30.09F WCI   4
PARK RAPIDS    CLEAR     13   2  61 NW10      29.96F WCI   0
MAHNOMEN       FAIR      13   6  74 N13       30.03F WCI  -1
$$
MNZ006-009>011-018-025>026-250600-
   North Central Minnesota

CITY           SKY/WX    TMP DP  RH WIND       PRES   REMARKS
BAUDETTE       CLEAR      8   1  73 NW9       29.99F WCI  -5
FLAG ISLAND    CLEAR      7   1  78 NW9       30.01F WCI  -7
INTL FALLS     CLEAR      7   0  73 NW10      29.95S WCI  -8
WASKISH        CLEAR     10   5  79 NW5       30.00S WCI   2
BIG FORK       CLEAR      9   1  72 NW6       29.93F WCI  -1
LONGVILLE      CLEAR     12   5  73 MISG      29.95S
GRAND RAPIDS   CLEAR     11   3  70 NW15      29.93S WCI  -5
CRANE LAKE     CLEAR     10   1  67 N5        29.93F WCI   2
ORR            CLOUDY    10   1  67 CALM      29.88S
COOK           CLOUDY    12   3  67 N6        29.89F WCI   3
WALKER         FAIR      11   3  70 NW13      29.96S WCI  -4
$$
MNZ012-019>021-037-250600-
   Northeast Minnesota

CITY           SKY/WX    TMP DP  RH WIND       PRES   REMARKS
DULUTH         CLOUDY    14   5  67 N14G22    29.83F WCI  -1
ELY            CLOUDY    10   1  67 NW6       29.84F WCI   1
HIBBING        MOCLDY    12   3  67 NW15      29.87F WCI  -4
EVELETH        CLOUDY    15  -2  47 N9G16     29.87F WCI   3
DULUTH HARBOR  CLOUDY    19   9  63 N14       29.91S WCI   6
TWO HARBORS    CLOUDY    18   7  62 N3        29.83S
SILVER BAY     MOCLDY    16   5  62 NW6       29.82S WCI   7
GRAND MARAIS     N/A     18   4  54 CALM      29.82F
G MARAIS ARPRT CLOUDY     9   0  66 NW8G20    29.73F WCI  -4
$$
MNZ029>031-032-039>041-046>048-054>057-064-250600-
   West Central Minnesota

CITY           SKY/WX    TMP DP  RH WIND       PRES   REMARKS
FERGUS FALLS   CLEAR     16   7  67 N15G22    30.09F WCI   1
WHEATON        CLEAR     18   9  68 NW14G22   30.10S WCI   4
MORRIS         CLEAR     18  10  73 NW22      30.02S WCI   0
ALEXANDRIA     CLEAR     16   8  71 NW18G25   29.97F WCI   0
ELBOW LAKE     FAIR      16   8  70 NW17G25   30.03S WCI   0
WADENA         CLEAR     12   7  79 NW13G20   29.97F WCI  -3
GLENWOOD       CLEAR     16  10  79 NW18G25   29.97S WCI  -1
APPLETON       CLEAR     19  10  68 NW17G24   30.04S WCI   4
BENSON         CLEAR     19   9  63 N22G28    30.02S WCI   3
ORTONVILLE     CLEAR     18  10  73 N15G24    30.06S WCI   3
MADISON        CLEAR     21  12  68 N24       30.06S WCI   4
WILLMAR        FAIR      19  14  79 NW21      29.98F WCI   3
$$
MNZ033>034-036-042>043-049>051-058-059-250600-
   Central Minnesota

CITY           SKY/WX    TMP DP  RH WIND       PRES   REMARKS
ST CLOUD       CLEAR     19   7  59 N14G23    29.93R WCI   6
SAUK CENTRE    FAIR      17  10  73 NW18G25   29.96S WCI   0
PAYNESVILLE    CLEAR     19  12  74 NW15      29.96S WCI   5
AITKIN         CLEAR     16   3  57 NW9G17    29.92S WCI   4
PINE RIVER     CLEAR     14   7  73 NW10G16   29.98S WCI   1
BRAINERD       MOCLDY    16   6  65 N15       29.94S WCI   1
STAPLES        CLEAR     14   7  73 NW14G21   29.96S WCI  -1
LONG PRAIRIE   FAIR      18   9  68 NW16G25   29.95S WCI   3
LITTLE FALLS   PTCLDY    18   7  62 NW8       29.96S WCI   7
LITCHFIELD     CLEAR     21  10  63 NW17G23   29.94S WCI   7
BUFFALO        CLEAR     21   9  59 NW13G18   29.93S WCI   8
MAPLE LAKE     CLEAR     21  11  65 NW14      29.93S WCI   8
HUTCHINSON     CLEAR     22  12  65 NW18G25   29.94S WCI   7
$$
MNZ037-044-045-052-053-250600-
   East Central Minnesota

CITY           SKY/WX    TMP DP  RH WIND       PRES   REMARKS
PRINCETON      CLEAR     19   7  58 NW16G22   29.91S WCI   5
MORA           CLEAR     18   7  62 N10G21    29.92S WCI   6
CAMBRIDGE      CLOUDY    21   9  58 NW10G16   29.89S WCI  10
RUSH CITY      CLOUDY    19   9  63 N12G17    29.89F WCI   7
MOOSE LAKE     PTCLDY    18   7  62 NW8       29.87F WCI   7
HINCKLEY       CLOUDY    19  10  68 NW13      29.90R WCI   7
CLOQUET        CLOUDY    14   5  67 NW10      29.86F WCI   1
MCGREGOR       CLEAR     16   7  67 NW12      29.91S WCI   3
$$
MNZ071>073-080-081-089-090-097-098-250600-
   Southwest Minnesota

CITY           SKY/WX    TMP DP  RH WIND       PRES   REMARKS
MONTEVIDEO     CLEAR     19  12  73 N23G29    30.03S WCI   2
GRANITE FALLS  CLEAR     21  13  71 NW18G29   30.03S WCI   6
CANBY          CLEAR     21  15  78 NW15G25   30.06S WCI   7
MARSHALL       CLEAR     19  12  74 NW24G32   30.01S WCI   2
REDWOOD FALLS  CLEAR     20  11  68 NW18G26   29.98R WCI   5
OLIVIA         CLEAR     21  14  73 NW21G29   29.97R WCI   6
PIPESTONE      CLEAR     19  10  68 N15G21    30.00S WCI   5
WINDOM         CLOUDY    18  12  79 NW25G33   29.95R WCI  -1
WORTHINGTON    CLOUDY    17  12  80 NW25      29.97S WCI  -1
JACKSON        CLOUDY    19  14  79 NW29G39   29.94R HAZE    WCI   1
TRACY          CLEAR     20  15  79 NW24      30.00R WCI   3
SLAYTON        PTCLDY    17  12  80 NW22G29   29.98R WCI   0
$$
MNZ065>067-074>077-082>085-091>093-250600-
   South Central Minnesota

CITY           SKY/WX    TMP DP  RH WIND       PRES   REMARKS
MANKATO          N/A     20  10  65 N14       29.91R WCI   7
NEW ULM        CLEAR     21  10  63 NW20G29   29.93R WCI   6
ST JAMES       CLOUDY    19  16  86 NW21G29   29.95R WCI   3
FAIRMONT       CLOUDY    19  14  81 NW22      29.92R WCI   2
GLENCOE        CLEAR     23  13  65 NW17G25   29.91S WCI   9
FARIBAULT      MOCLDY    19  10  68 NW10G16   29.88S WCI   8
OWATONNA       PTCLDY    18  10  73 NW15      29.86S WCI   3
WASECA         PTCLDY    18  10  73 NW17      29.89S WCI   2
ALBERT LEA     PTCLDY    18  10  73 NW10G18   29.85R WCI   6
$$
MNZ078>079-086>088-094>096-250600-
   Southeast Minnesota

CITY           SKY/WX    TMP DP  RH WIND       PRES   REMARKS
ROCHESTER      CLOUDY    18  11  74 N16       29.80R WCI   3
RED WING       CLOUDY    21   7  53 N13G21    29.84S WCI   9
STANTON        CLOUDY    23  12  63 N15G23    29.85F WCI  10
WINONA         CLOUDY    21  18  86 NW8       29.83S WCI  12
AUSTIN         CLOUDY    18  10  73 N14       29.83R WCI   4
PRESTON        CLOUDY    17  14  86 N10       29.79R WCI   5
$$
ABBREVIATIONS USED IN REMARKS
   TC - TEMPERATURES IN CELSIUS
  WCI - WIND CHILL INDEX
   HX - HEAT INDEX
  VSB - VISIBILITY
$$



USA.gov is the U.S. government's official web portal to all federal, state and local government web resources and services.